Mound City, IL

6:57 PM CDT on September 28, 2016 (GMT -0500)
Cairo Regional

Weather History for KCIR - September, 2013

Change the Weather History Date:

Friday, September 6, 2013

  Actual Average Record
Temperature  
Mean Temperature 76 °F -  
Max Temperature 88 °F 85 °F 100 °F (1954)
Min Temperature 63 °F 64 °F 47 °F (1988)
Cooling Degree Days 10    
Growing Degree Days 26 (Base 50)    
Moisture  
Dew Point 66 °F    
Average Humidity 76    
Maximum Humidity 96    
Minimum Humidity 44    
Precipitation  
Precipitation 0.00 in - - ()
Sea Level Pressure  
Sea Level Pressure 30.13 in    
Wind  
Wind Speed 1 mph (SE)    
Max Wind Speed 6 mph    
Max Gust Speed -    
Visibility 7 miles    
Events Fog    
Averages and records for this station are not official NWS values.
T = Trace of Precipitation, MM = Missing Value Source: NWS Daily Summary

Daily Weather History Graph

Daily Weather History Graph

Search for Another Location

Airport or City:

Trip Planner

Search our weather history database for the weather conditions in past years. The results will help you decide how hot, cold, wet, or windy it might be!

Date:

Astronomy

Sep. 06, 2013 Rise Set
Actual Time 6:31 AM CDT 7:17 PM CDT
Civil Twilight 6:05 AM CDT 7:44 PM CDT
Nautical Twilight 5:34 AM CDT 8:15 PM CDT
Astronomical Twilight 5:02 AM CDT 8:47 PM CDT
Moon 7:41 AM CDT (9/6) 7:45 PM CDT (9/6)
Length of Visible Light 13h 38m
Length of Day
12h 45m
New Moon, 2% of the Moon is Illuminated
Sep 6
New Moon
Sep 12
First Quarter
Sep 19
Full
Sep 26
Last Quarter
Oct 4
New

Hourly Weather History & Observations

Time (CDT) Temp. Heat Index Dew Point Humidity Pressure Visibility Wind Dir Wind Speed Gust Speed Precip Events Conditions
12:15 AM 67.1 °F - 64.6 °F 92% 30.16 in 5.0 mi Calm Calm - N/A   Clear
12:35 AM 66.6 °F - 64.4 °F 93% 30.16 in 5.0 mi Calm Calm - N/A   Clear
12:55 AM 67.6 °F - 65.3 °F 92% 30.16 in 5.0 mi Calm Calm - N/A   Clear
1:15 AM 67.5 °F - 65.3 °F 93% 30.17 in 5.0 mi Calm Calm - N/A   Clear
1:35 AM 67.1 °F - 64.6 °F 92% 30.17 in 5.0 mi Calm Calm - N/A   Clear
1:55 AM 67.1 °F - 64.6 °F 92% 30.17 in 5.0 mi Calm Calm - N/A   Clear
2:15 AM 66.6 °F - 64.4 °F 93% 30.16 in 1.0 mi Calm Calm - N/A   Mist
2:35 AM 67.3 °F - 65.3 °F 93% 30.16 in 4.0 mi Calm Calm - N/A   Clear
2:55 AM 66.2 °F - 64.0 °F 93% 30.16 in 2.0 mi Calm Calm - N/A   Clear
3:15 AM 66.4 °F - 64.4 °F 93% 30.15 in 5.0 mi Calm Calm - N/A   Clear
3:35 AM 65.5 °F - 63.5 °F 93% 30.15 in 4.0 mi Calm Calm - N/A   Clear
3:55 AM 65.1 °F - 63.0 °F 93% 30.15 in 1.8 mi Calm Calm - N/A   Mist
4:15 AM 65.5 °F - 63.5 °F 93% 30.15 in 3.0 mi Calm Calm - N/A   Clear
4:35 AM 65.3 °F - 63.1 °F 93% 30.14 in 3.0 mi Calm Calm - N/A   Clear
4:55 AM 65.7 °F - 63.9 °F 94% 30.15 in 0.5 mi Calm Calm - N/A Fog Fog
5:15 AM 64.2 °F - 62.2 °F 93% 30.15 in 0.5 mi Calm Calm - N/A Fog Fog
5:35 AM 64.6 °F - 62.8 °F 94% 30.15 in 2.5 mi Calm Calm - N/A   Clear
5:55 AM 65.1 °F - 63.5 °F 94% 30.15 in 1.5 mi Calm Calm - N/A   Mist
6:15 AM 64.0 °F - 62.6 °F 95% 30.15 in 0.2 mi Calm Calm - N/A Fog Fog
6:35 AM 63.7 °F - 62.1 °F 94% 30.15 in 1.0 mi Calm Calm - N/A   Mist
6:55 AM 64.0 °F - 62.6 °F 95% 30.15 in 0.2 mi Calm Calm - N/A Fog Fog
7:15 AM 63.5 °F - 61.7 °F 94% 30.16 in 0.2 mi Calm Calm - N/A Fog Fog
7:35 AM 65.3 °F - 63.7 °F 94% 30.16 in 3.0 mi Calm Calm - N/A   Clear
7:55 AM 67.8 °F - 66.2 °F 95% 30.16 in 2.5 mi Calm Calm - N/A   Clear
8:15 AM 70.2 °F - 68.9 °F 96% 30.17 in 5.0 mi Calm Calm - N/A   Clear
8:35 AM 71.8 °F - 70.2 °F 95% 30.17 in 7.0 mi Calm Calm - N/A   Clear
8:55 AM 73.9 °F - 71.4 °F 92% 30.18 in 10.0 mi Calm Calm - N/A   Clear
9:15 AM 75.6 °F - 72.0 °F 89% 30.18 in 10.0 mi Calm Calm - N/A   Clear
9:35 AM 78.3 °F - 72.0 °F 81% 30.18 in 10.0 mi Calm Calm - N/A   Clear
9:55 AM 79.9 °F - 70.2 °F 72% 30.19 in 10.0 mi East 3.5 mph - N/A   Clear
10:15 AM 80.8 °F 83.8 °F 68.7 °F 67% 30.18 in 10.0 mi Calm Calm - N/A   Clear
10:35 AM 81.9 °F 84.6 °F 67.8 °F 62% 30.18 in 10.0 mi ESE 3.5 mph - N/A   Clear
10:55 AM 83.1 °F 86.3 °F 68.5 °F 61% 30.18 in 10.0 mi Calm Calm - N/A   Clear
11:15 AM 83.3 °F 85.9 °F 66.9 °F 58% 30.18 in 10.0 mi SE 4.6 mph - N/A   Clear
11:35 AM 84.2 °F 87.1 °F 67.3 °F 57% 30.17 in 10.0 mi SE 4.6 mph - N/A   Clear
11:55 AM 84.6 °F 87.1 °F 66.6 °F 55% 30.17 in 10.0 mi Calm Calm - N/A   Clear
12:15 PM 84.7 °F 86.3 °F 64.8 °F 51% 30.16 in 10.0 mi Calm Calm - N/A   Clear
12:35 PM 86.0 °F 88.2 °F 66.2 °F 51% 30.16 in 10.0 mi SSE 4.6 mph - N/A   Clear
12:55 PM 85.8 °F 87.6 °F 65.3 °F 50% 30.15 in 10.0 mi SE 5.8 mph - N/A   Clear
1:15 PM 86.4 °F 88.1 °F 65.3 °F 49% 30.15 in 10.0 mi SSE 3.5 mph - N/A   Clear
1:35 PM 86.5 °F 88.1 °F 64.6 °F 48% 30.14 in 10.0 mi South 3.5 mph - N/A   Clear
1:55 PM 86.9 °F 88.6 °F 65.1 °F 48% 30.13 in 10.0 mi SE 4.6 mph - N/A   Clear
2:15 PM 87.1 °F 88.9 °F 64.9 °F 48% 30.13 in 10.0 mi Calm Calm - N/A   Clear
2:35 PM 88.0 °F 90.3 °F 66.2 °F 48% 30.12 in 10.0 mi SE 4.6 mph - N/A   Clear
2:55 PM 88.3 °F 90.5 °F 65.7 °F 47% 30.11 in 10.0 mi SE 4.6 mph - N/A   Clear
3:15 PM 88.2 °F 90.3 °F 65.3 °F 47% 30.10 in 10.0 mi South 3.5 mph - N/A   Clear
3:35 PM 88.2 °F 89.6 °F 64.6 °F 45% 30.10 in 10.0 mi Calm Calm - N/A   Clear
3:55 PM 88.5 °F 90.8 °F 65.7 °F 47% 30.08 in 10.0 mi ESE 3.5 mph - N/A   Clear
4:15 PM 87.8 °F 89.1 °F 64.2 °F 45% 30.08 in 10.0 mi SE 3.5 mph - N/A   Clear
4:35 PM 88.0 °F 89.0 °F 63.5 °F 44% 30.08 in 10.0 mi ESE 4.6 mph - N/A   Clear
4:55 PM 87.8 °F 89.7 °F 65.3 °F 47% 30.08 in 10.0 mi Calm Calm - N/A   Clear
5:15 PM 87.3 °F 89.2 °F 65.1 °F 48% 30.08 in 10.0 mi Calm Calm - N/A   Clear
5:35 PM 87.3 °F 89.8 °F 66.6 °F 50% 30.08 in 10.0 mi Calm Calm - N/A   Clear
5:55 PM 86.2 °F 88.4 °F 65.8 °F 51% 30.07 in 10.0 mi Calm Calm - N/A   Clear
6:15 PM 85.1 °F 87.7 °F 66.9 °F 54% 30.07 in 10.0 mi Calm Calm - N/A   Clear
6:35 PM 84.2 °F 87.3 °F 68.0 °F 58% 30.07 in 10.0 mi Calm Calm - N/A   Clear
6:55 PM 81.0 °F 84.7 °F 70.9 °F 71% 30.07 in 10.0 mi Calm Calm - N/A   Clear
7:15 PM 76.6 °F - 69.3 °F 78% 30.06 in 10.0 mi Calm Calm - N/A   Clear
7:35 PM 76.1 °F - 69.1 °F 79% 30.06 in 10.0 mi Calm Calm - N/A   Clear
7:55 PM 74.8 °F - 67.8 °F 79% 30.06 in 10.0 mi Calm Calm - N/A   Clear
8:15 PM 74.1 °F - 68.5 °F 83% 30.07 in 10.0 mi Calm Calm - N/A   Clear
8:35 PM 72.3 °F - 67.1 °F 84% 30.07 in 10.0 mi Calm Calm - N/A   Clear
8:55 PM 69.8 °F - 65.3 °F 86% 30.07 in 10.0 mi Calm Calm - N/A   Clear
9:15 PM 71.6 °F - 67.8 °F 88% 30.07 in 7.0 mi Calm Calm - N/A   Clear
9:35 PM 70.7 °F - 67.5 °F 89% 30.07 in 10.0 mi Calm Calm - N/A   Clear
9:55 PM 69.4 °F - 65.7 °F 88% 30.07 in 4.0 mi Calm Calm - N/A   Clear
10:15 PM 69.8 °F - 66.4 °F 89% 30.07 in 5.0 mi Calm Calm - N/A   Clear
10:35 PM 68.7 °F - 65.7 °F 90% 30.07 in 3.0 mi Calm Calm - N/A   Clear
10:55 PM 68.5 °F - 65.8 °F 91% 30.07 in 0.2 mi Calm Calm - N/A Fog Fog
11:15 PM 68.9 °F - 66.4 °F 92% 30.07 in 0.2 mi Calm Calm - N/A Fog Fog
11:35 PM 68.0 °F - 65.7 °F 92% 30.07 in 0.8 mi Calm Calm - N/A   Mist
11:55 PM 66.4 °F - 64.2 °F 93% 30.07 in 7.0 mi Calm Calm - N/A   Clear